This demonstration page uses our WeatherBlox Daily Observations layout. Learn more.

Left ArrowRight Arrow

Hourly Observations for May 6, 2020

Temp ( °F °C ) Dew Point ( °F °C ) Humidity (%) Winds ( mph kmh ) Pressure ( in mb ) Visibility ( mi km ) Precip ( " mm )
12:52 am 00:52 Clear 44 6.7 41 5 89 89 NNE 5 7 30.19 1022 10 16 0.00 0.00
1:52 am 01:52 Mostly Clear 44 6.7 42 5.6 93 93 Calm 30.20 1023 10 16 0.00 0.00
2:52 am 02:52 Mostly Cloudy 42 5.6 41 5 96 96 NNW 3 6 30.22 1023 10 16 0.00 0.00
3:52 am 03:52 Cloudy 45 7.2 43 6.1 93 93 WNW 3 6 30.22 1024 10 16 0.00 0.00
4:52 am 04:52 Mostly Cloudy 44 6.7 42 5.6 93 93 N 5 7 30.24 1024 10 16 0.00 0.00
5:52 am 05:52 Mostly Clear 42 5.6 40 4.4 92 92 NW 8 13 30.25 1024 10 16 0.00 0.00
6:52 am 06:52 Mostly Sunny 43 6.1 40 4.4 89 89 NW 7 11 30.26 1025 10 16 0.00 0.00
7:52 am 07:52 Partly Cloudy 45 7.2 42 5.6 90 90 NNW 5 7 30.27 1025 10 16 0.00 0.00
8:52 am 08:52 Partly Cloudy 52 11.1 44 6.7 75 75 NW 13 20 30.27 1025 10 16 0.00 0.00
9:38 am 09:38 Cloudy 50 10 43 6.1 77 77 NNW 15 24 30.29 1026 10 16 0.00 0.00
9:52 am 09:52 Mostly Cloudy 50 10 42 5.6 74 74 N 15 24 30.29 1026 10 16 0.00 0.00
10:20 am 10:20 Mostly Cloudy 53 11.7 43 6.1 69 69 NNW 14 22 30.28 1026 10 16 0.00 0.00
10:52 am 10:52 Mostly Cloudy 52 11.1 43 6.1 72 72 N 12 19 30.29 1026 10 16 0.00 0.00
11:52 am 11:52 Cloudy 53 11.7 42 5.6 66 66 N 14 22 30.30 1026 10 16 0.00 0.00
12:52 pm 12:52 Cloudy 54 12.2 41 5 62 62 NNW 10 17 30.29 1026 10 16 0.00 0.00
1:52 pm 13:52 Cloudy 57 13.9 41 5 55 55 NW 7 11 30.28 1025 10 16 0.00 0.00
2:52 pm 14:52 Cloudy 56 13.3 40 4.4 55 55 WNW 8 13 30.27 1025 10 16 0.00 0.00
3:52 pm 15:52 Mostly Cloudy 60 15.6 40 4.4 47 47 WNW 9 15 30.24 1024 10 16 0.00 0.00
4:52 pm 16:52 Partly Cloudy 60 15.6 38 3.3 44 44 N 13 20 30.22 1023 10 16 0.00 0.00
5:52 pm 17:52 Partly Cloudy 62 16.7 38 3.3 41 41 NNW 7 11 30.22 1023 10 16 0.00 0.00
6:52 pm 18:52 Mostly Cloudy 58 14.4 38 3.3 48 48 NW 7 11 30.21 1023 10 16 0.00 0.00
7:52 pm 19:52 Mostly Cloudy 58 14.4 39 3.9 50 50 WNW 6 9 30.20 1023 10 16 0.00 0.00
8:52 pm 20:52 Mostly Clear 52 11.1 38 3.3 59 59 NW 6 9 30.20 1023 10 16 0.00 0.00
9:52 pm 21:52 Mostly Cloudy 52 11.1 39 3.9 61 61 Calm 30.21 1023 10 16 0.00 0.00
10:52 pm 22:52 Partly Cloudy 49 9.4 40 4.4 71 71 Calm 30.21 1023 10 16 0.00 0.00
11:52 pm 23:52 Mostly Clear 48 8.9 41 5 77 77 Calm 30.20 1023 10 16 0.00 0.00

Powered by AerisWeather